Location: Banff
(51.1667°N, 115.5667°W)
Time: 11:24:32
(UTC+00:00)

A-11 Canister half - Pass Details

Date: 26 November 2020
Orbit: 1524 x 1684 km, 47.3° (Epoch: 20 January)

Event Time Altitude Azimuth Distance (km) Brightness Sun altitude
Rises 13:44:18 0° 214° (SW) 4,928 11.5 -14.1°
Reaches altitude 10° 13:47:45 10° 207° (SSW) 3,938 11.0 -13.6°
Maximum altitude 13:56:46 39° 143° (SE) 2,337 10.5 -12.2°
Drops below altitude 10° 14:05:36 10° 80° (E) 3,873 12.1 -10.9°
Sets 14:08:57 0° 73° (ENE) 4,839 12.5 -10.4°
